| time (UTC) | temp C | wind direction | speed KPH | gust KPH | rain 1hr cm | rain 24hr cm | rain mn cm | humidity % | barometer mb |
| 20260906113451 | 20 | 157 | 0.0 | 3.2 | 0.00 | 0.00 | 0.00 | 98 | 1018.8 |
| 20260906112947 | 20 | 15 | 3.2 | 4.8 | 0.00 | 0.00 | 0.00 | 98 | 1018.8 |
| 20260906112442 | 20 | 75 | 0.0 | 3.2 | 0.00 | 0.00 | 0.00 | 98 | 1018.8 |
| 20260906111938 | 20 | 80 | 0.0 | 4.8 | 0.00 | 0.00 | 0.00 | 98 | 1018.5 |
| 20260906111437 | 20 | 347 | 0.0 | 3.2 | 0.00 | 0.00 | 0.00 | 98 | 1018.6 |
| 20260906110932 | 20 | 3 | 0.0 | 4.8 | 0.00 | 0.00 | 0.00 | 98 | 1018.6 |
| 20260906110428 | 20 | 309 | 0.0 | 3.2 | 0.00 | 0.00 | 0.00 | 98 | 1018.4 |
| 20260906105926 | 20 | 38 | 0.0 | 1.6 | 0.00 | 0.00 | 0.00 | 98 | 1018.3 |
| 20260906105422 | 20 | 75 | 0.0 | 1.6 | 0.00 | 0.00 | 0.00 | 98 | 1018.4 |
| 20260906104918 | 20 | 135 | 0.0 | 1.6 | 0.00 | 0.00 | 0.00 | 98 | 1018.2 |
| 20260906104416 | 20 | 100 | 1.6 | 1.6 | 0.00 | 0.00 | 0.00 | 98 | 1018.1 |
| 20260906103916 | 20 | 0 | 0.0 | 1.6 | 0.00 | 0.00 | 0.00 | 97 | 1018.1 |
| 20260906103414 | 20 | 50 | 0.0 | 3.2 | 0.00 | 0.00 | 0.00 | 97 | 1018.4 |
| 20260906102910 | 20 | 336 | 0.0 | 1.6 | 0.00 | 0.00 | 0.00 | 97 | 1018.2 |
| 20260906102409 | 20 | 347 | 0.0 | 1.6 | 0.00 | 0.00 | 0.00 | 97 | 1018.2 |
| 20260906101904 | 20 | 37 | 0.0 | 4.8 | 0.00 | 0.00 | 0.00 | 97 | 1018.2 |
| 20260906101359 | 20 | 350 | 0.0 | 3.2 | 0.00 | 0.00 | 0.00 | 97 | 1017.9 |
| 20260906100854 | 20 | 357 | 0.0 | 3.2 | 0.00 | 0.00 | 0.00 | 97 | 1018.2 |
| 20260906100353 | 20 | 33 | 0.0 | 1.6 | 0.00 | 0.00 | 0.00 | 96 | 1018.0 |
| 20260906095849 | 20 | 25 | 0.0 | 3.2 | 0.00 | 0.00 | 0.00 | 96 | 1017.9 |
| 20260906095344 | 20 | 10 | 0.0 | 3.2 | 0.00 | 0.00 | 0.00 | 96 | 1017.9 |
| 20260906094844 | 20 | 9 | 0.0 | 4.8 | 0.00 | 0.00 | 0.00 | 96 | 1017.8 |
| 20260906094338 | 20 | 37 | 0.0 | 8.0 | 0.00 | 0.00 | 0.00 | 95 | 1018.0 |
| 20260906093830 | 20 | 53 | 0.0 | 4.8 | 0.00 | 0.00 | 0.00 | 95 | 1017.9 |
| 20260906093325 | 20 | 357 | 1.6 | 4.8 | 0.00 | 0.00 | 0.00 | 95 | 1017.9 |
| 20260906092819 | 20 | 358 | 3.2 | 4.8 | 0.00 | 0.00 | 0.00 | 95 | 1017.9 |
| 20260906092314 | 21 | 355 | 0.0 | 4.8 | 0.00 | 0.00 | 0.00 | 94 | 1017.8 |
| 20260906091809 | 21 | 39 | 1.6 | 4.8 | 0.00 | 0.00 | 0.00 | 94 | 1017.6 |
| 20260906091305 | 21 | 42 | 3.2 | 4.8 | 0.00 | 0.00 | 0.00 | 94 | 1017.8 |
| 20260906090802 | 21 | 31 | 3.2 | 4.8 | 0.00 | 0.00 | 0.00 | 94 | 1017.7 |
| 20260906090300 | 21 | 76 | 1.6 | 6.4 | 0.00 | 0.00 | 0.00 | 94 | 1017.8 |
| 20260906085800 | 21 | 15 | 0.0 | 4.8 | 0.00 | 0.00 | 0.00 | 94 | 1018.0 |
| 20260906085253 | 21 | 27 | 3.2 | 4.8 | 0.00 | 0.00 | 0.00 | 94 | 1017.8 |
| 20260906084748 | 21 | 353 | 0.0 | 4.8 | 0.00 | 0.00 | 0.00 | 94 | 1017.6 |
| 20260906084242 | 21 | 20 | 3.2 | 3.2 | 0.00 | 0.00 | 0.00 | 94 | 1017.6 |
| 20260906083737 | 21 | 43 | 0.0 | 4.8 | 0.00 | 0.00 | 0.00 | 93 | 1017.7 |
| 20260906083233 | 21 | 99 | 0.0 | 4.8 | 0.00 | 0.00 | 0.00 | 93 | 1017.8 |
| 20260906082728 | 21 | 29 | 1.6 | 4.8 | 0.00 | 0.00 | 0.00 | 93 | 1017.8 |
| 20260906082223 | 21 | 61 | 1.6 | 4.8 | 0.00 | 0.00 | 0.00 | 93 | 1017.7 |
| 20260906081719 | 22 | 63 | 4.8 | 6.4 | 0.00 | 0.00 | 0.00 | 92 | 1017.9 |
| 20260906081219 | 22 | 64 | 1.6 | 6.4 | 0.00 | 0.00 | 0.00 | 92 | 1018.0 |
| 20260906080715 | 22 | 33 | 4.8 | 8.0 | 0.00 | 0.00 | 0.00 | 92 | 1018.0 |
| 20260906080211 | 22 | 46 | 4.8 | 6.4 | 0.00 | 0.00 | 0.00 | 92 | 1018.1 |
| 20260906075706 | 22 | 77 | 4.8 | 6.4 | 0.00 | 0.00 | 0.00 | 92 | 1018.0 |
| 20260906075201 | 22 | 76 | 1.6 | 6.4 | 0.00 | 0.00 | 0.00 | 92 | 1018.2 |
| 20260906074656 | 22 | 64 | 3.2 | 8.0 | 0.00 | 0.00 | 0.00 | 92 | 1018.1 |
| 20260906074155 | 22 | 44 | 1.6 | 6.4 | 0.00 | 0.00 | 0.00 | 92 | 1018.3 |
| 20260906073649 | 22 | 61 | 1.6 | 4.8 | 0.00 | 0.00 | 0.00 | 92 | 1017.9 |
| 20260906073140 | 22 | 33 | 1.6 | 6.4 | 0.00 | 0.00 | 0.00 | 93 | 1018.1 |
| 20260906072635 | 22 | 341 | 1.6 | 4.8 | 0.00 | 0.00 | 0.00 | 92 | 1018.1 |
| 20260906072130 | 22 | 48 | 3.2 | 6.4 | 0.00 | 0.00 | 0.00 | 92 | 1017.9 |
| 20260906071626 | 22 | 46 | 3.2 | 4.8 | 0.00 | 0.00 | 0.00 | 92 | 1018.1 |
| 20260906071121 | 22 | 29 | 1.6 | 6.4 | 0.00 | 0.00 | 0.00 | 92 | 1018.5 |
| 20260906070618 | 22 | 78 | 0.0 | 4.8 | 0.00 | 0.00 | 0.00 | 92 | 1018.1 |
| 20260906070113 | 22 | 73 | 0.0 | 8.0 | 0.00 | 0.00 | 0.00 | 92 | 1018.3 |
| 20260906065613 | 22 | 35 | 1.6 | 6.4 | 0.00 | 0.00 | 0.00 | 92 | 1018.2 |
| 20260906065108 | 22 | 52 | 1.6 | 6.4 | 0.00 | 0.00 | 0.00 | 92 | 1018.1 |
| 20260906064604 | 22 | 108 | 0.0 | 4.8 | 0.00 | 0.00 | 0.00 | 91 | 1018.0 |
| 20260906064058 | 22 | 359 | 3.2 | 4.8 | 0.00 | 0.00 | 0.00 | 91 | 1017.9 |
| 20260906063554 | 22 | 12 | 1.6 | 9.7 | 0.00 | 0.00 | 0.00 | 91 | 1017.9 |
| 20260906063049 | 22 | 66 | 3.2 | 9.7 | 0.00 | 0.00 | 0.00 | 91 | 1018.1 |
| 20260906062544 | 22 | 24 | 0.0 | 11.3 | 0.00 | 0.00 | 0.00 | 91 | 1017.9 |
| 20260906062038 | 22 | 96 | 8.0 | 9.7 | 0.00 | 0.00 | 0.00 | 90 | 1018.0 |
| 20260906061535 | 22 | 52 | 4.8 | 9.7 | 0.00 | 0.00 | 0.00 | 90 | 1018.2 |
| 20260906061034 | 22 | 92 | 4.8 | 9.7 | 0.00 | 0.00 | 0.00 | 90 | 1018.2 |
| 20260906060531 | 22 | 14 | 1.6 | 12.9 | 0.00 | 0.00 | 0.00 | 90 | 1018.0 |
| 20260906060028 | 22 | 83 | 3.2 | 9.7 | 0.00 | 0.00 | 0.00 | 90 | 1018.1 |
| 20260906055523 | 22 | 35 | 3.2 | 9.7 | 0.00 | 0.00 | 0.00 | 90 | 1017.8 |
| 20260906055019 | 22 | 78 | 8.0 | 9.7 | 0.00 | 0.00 | 0.00 | 90 | 1018.0 |
| 20260906054519 | 22 | 69 | 4.8 | 9.7 | 0.00 | 0.00 | 0.00 | 90 | 1017.9 |
| 20260906054014 | 22 | 0 | 4.8 | 12.9 | 0.00 | 0.00 | 0.00 | 91 | 1018.0 |
| 20260906053510 | 22 | 358 | 6.4 | 8.0 | 0.00 | 0.00 | 0.00 | 91 | 1017.7 |
| 20260906053006 | 22 | 29 | 3.2 | 8.0 | 0.00 | 0.00 | 0.00 | 90 | 1017.7 |
| 20260906052501 | 22 | 355 | 3.2 | 8.0 | 0.00 | 0.00 | 0.00 | 90 | 1018.0 |
| 20260906051958 | 22 | 336 | 1.6 | 9.7 | 0.00 | 0.00 | 0.00 | 90 | 1017.8 |
| 20260906051453 | 22 | 10 | 4.8 | 11.3 | 0.00 | 0.00 | 0.00 | 90 | 1017.7 |
| 20260906050949 | 22 | 30 | 3.2 | 12.9 | 0.00 | 0.00 | 0.00 | 90 | 1017.8 |
| 20260906050448 | 22 | 22 | 4.8 | 12.9 | 0.00 | 0.00 | 0.00 | 90 | 1017.9 |
| 20260906045948 | 22 | 357 | 3.2 | 16.1 | 0.00 | 0.00 | 0.00 | 90 | 1017.7 |
| 20260906045447 | 22 | 40 | 4.8 | 12.9 | 0.00 | 0.00 | 0.00 | 90 | 1017.5 |
| 20260906044943 | 22 | 51 | 4.8 | 11.3 | 0.00 | 0.00 | 0.00 | 90 | 1017.4 |
| 20260906044438 | 22 | 126 | 9.7 | 17.7 | 0.00 | 0.00 | 0.00 | 90 | 1017.0 |
| 20260906043933 | 22 | 20 | 8.0 | 12.9 | 0.00 | 0.00 | 0.00 | 90 | 1017.0 |
| 20260906043429 | 22 | 61 | 6.4 | 11.3 | 0.00 | 0.00 | 0.00 | 90 | 1017.0 |
| 20260906042925 | 22 | 70 | 9.7 | 16.1 | 0.00 | 0.00 | 0.00 | 90 | 1017.1 |
| 20260906042424 | 22 | 118 | 3.2 | 17.7 | 0.00 | 0.00 | 0.00 | 90 | 1017.0 |
| 20260906041919 | 22 | 45 | 14.5 | 17.7 | 0.00 | 0.00 | 0.00 | 89 | 1017.0 |
| 20260906041414 | 22 | 109 | 6.4 | 16.1 | 0.00 | 0.00 | 0.00 | 90 | 1017.0 |
| 20260906040908 | 22 | 39 | 9.7 | 16.1 | 0.00 | 0.00 | 0.00 | 89 | 1016.8 |
| 20260906040404 | 22 | 17 | 6.4 | 20.9 | 0.00 | 0.00 | 0.00 | 89 | 1017.0 |
| 20260906035859 | 22 | 67 | 3.2 | 12.9 | 0.00 | 0.00 | 0.00 | 89 | 1017.0 |
| 20260906035354 | 22 | 15 | 8.0 | 16.1 | 0.00 | 0.00 | 0.00 | 90 | 1017.0 |
| 20260906034849 | 22 | 29 | 6.4 | 14.5 | 0.00 | 0.00 | 0.00 | 90 | 1016.8 |
| 20260906034344 | 22 | 55 | 12.9 | 19.3 | 0.00 | 0.00 | 0.00 | 89 | 1017.0 |
| 20260906033840 | 22 | 67 | 8.0 | 22.5 | 0.00 | 0.00 | 0.00 | 89 | 1016.9 |
| 20260906033339 | 22 | 36 | 4.8 | 14.5 | 0.00 | 0.00 | 0.00 | 89 | 1016.7 |
| 20260906032836 | 22 | 61 | 3.2 | 11.3 | 0.00 | 0.00 | 0.00 | 89 | 1016.7 |
| 20260906032331 | 22 | 15 | 6.4 | 12.9 | 0.00 | 0.00 | 0.00 | 89 | 1016.9 |
| 20260906031826 | 22 | 15 | 3.2 | 9.7 | 0.00 | 0.00 | 0.00 | 89 | 1016.7 |
| 20260906031322 | 22 | 56 | 8.0 | 14.5 | 0.00 | 0.00 | 0.00 | 89 | 1016.7 |
| 20260906030821 | 22 | 89 | 8.0 | 12.9 | 0.00 | 0.00 | 0.00 | 89 | 1016.7 |
| 20260906030316 | 22 | 31 | 0.0 | 9.7 | 0.00 | 0.00 | 0.00 | 89 | 1016.8 |
| 20260906025811 | 22 | 46 | 4.8 | 16.1 | 0.00 | 0.00 | 0.00 | 89 | 1016.7 |
| 20260906025306 | 22 | 112 | 4.8 | 11.3 | 0.00 | 0.00 | 0.00 | 89 | 1016.7 |
| 20260906024804 | 22 | 13 | 4.8 | 4.8 | 0.00 | 0.00 | 0.00 | 89 | 1016.8 |
| 20260906024303 | 22 | 14 | 3.2 | 17.7 | 0.00 | 0.00 | 0.00 | 90 | 1016.9 |
| 20260906023759 | 22 | 34 | 3.2 | 17.7 | 0.00 | 0.00 | 0.00 | 90 | 1016.6 |
| 20260906023254 | 22 | 47 | 9.7 | 11.3 | 0.00 | 0.00 | 0.00 | 90 | 1016.9 |
| 20260906022750 | 22 | 351 | 6.4 | 11.3 | 0.00 | 0.00 | 0.00 | 90 | 1016.6 |
| 20260906022245 | 22 | 30 | 8.0 | 17.7 | 0.00 | 0.00 | 0.00 | 89 | 1016.6 |
| 20260906021741 | 22 | 44 | 9.7 | 19.3 | 0.00 | 0.00 | 0.00 | 89 | 1016.8 |
| 20260906021240 | 22 | 28 | 3.2 | 14.5 | 0.00 | 0.00 | 0.00 | 89 | 1016.7 |
| 20260906020734 | 22 | 69 | 4.8 | 16.1 | 0.00 | 0.00 | 0.00 | 90 | 1016.9 |
| 20260906020224 | 22 | 0 | 3.2 | 14.5 | 0.00 | 0.00 | 0.00 | 90 | 1016.8 |
| 20260906015724 | 22 | 23 | 6.4 | 19.3 | 0.00 | 0.00 | 0.00 | 90 | 1016.7 |
| 20260906015222 | 22 | 103 | 6.4 | 14.5 | 0.00 | 0.00 | 0.00 | 90 | 1017.1 |
| 20260906014716 | 22 | 338 | 4.8 | 11.3 | 0.00 | 0.00 | 0.00 | 90 | 1016.9 |
| 20260906014213 | 22 | 16 | 4.8 | 16.1 | 0.00 | 0.00 | 0.00 | 90 | 1016.9 |
| 20260906013709 | 22 | 315 | 4.8 | 22.5 | 0.00 | 0.00 | 0.00 | 90 | 1017.0 |
| 20260906013208 | 22 | 350 | 9.7 | 12.9 | 0.00 | 0.00 | 0.00 | 90 | 1017.0 |
| 20260906012703 | 22 | 13 | 4.8 | 19.3 | 0.00 | 0.00 | 0.00 | 90 | 1016.6 |
| 20260906012158 | 22 | 28 | 6.4 | 14.5 | 0.00 | 0.00 | 0.00 | 90 | 1016.7 |
| 20260906011654 | 22 | 30 | 17.7 | 19.3 | 0.00 | 0.00 | 0.00 | 89 | 1016.7 |
| 20260906011148 | 22 | 321 | 9.7 | 14.5 | 0.00 | 0.00 | 0.00 | 89 | 1016.8 |
| 20260906010644 | 22 | 342 | 3.2 | 8.0 | 0.00 | 0.00 | 0.00 | 89 | 1016.6 |
| 20260906010140 | 22 | 3 | 6.4 | 16.1 | 0.00 | 0.00 | 0.00 | 89 | 1016.7 |
| 20260906005639 | 22 | 316 | 8.0 | 16.1 | 0.00 | 0.00 | 0.00 | 88 | 1016.8 |
| 20260906005138 | 22 | 332 | 14.5 | 17.7 | 0.00 | 0.00 | 0.00 | 88 | 1016.7 |
| 20260906004638 | 22 | 10 | 6.4 | 19.3 | 0.00 | 0.00 | 0.00 | 88 | 1016.3 |
| 20260906004133 | 22 | 337 | 6.4 | 19.3 | 0.00 | 0.00 | 0.00 | 88 | 1016.4 |
| 20260906003628 | 22 | 25 | 4.8 | 20.9 | 0.00 | 0.00 | 0.00 | 88 | 1016.3 |
| 20260906003124 | 22 | 7 | 14.5 | 17.7 | 0.00 | 0.00 | 0.00 | 88 | 1016.3 |
| 20260906002619 | 22 | 357 | 6.4 | 22.5 | 0.00 | 0.00 | 0.00 | 88 | 1016.1 |
| 20260906002113 | 22 | 355 | 17.7 | 25.7 | 0.00 | 0.00 | 0.00 | 88 | 1016.2 |
| 20260906001608 | 23 | 22 | 11.3 | 20.9 | 0.00 | 0.00 | 0.00 | 87 | 1016.1 |
| 20260906001103 | 23 | 14 | 8.0 | 14.5 | 0.00 | 0.00 | 0.00 | 87 | 1016.1 |
| 20260906000559 | 23 | 36 | 12.9 | 20.9 | 0.00 | 0.00 | 0.00 | 87 | 1016.3 |
| 20260906000054 | 23 | 2 | 9.7 | 20.9 | 0.00 | 0.00 | 0.00 | 87 | 1016.2 |
| 20260905235553 | 23 | 16 | 9.7 | 24.1 | 0.00 | 0.00 | 0.00 | 86 | 1016.2 |
| 20260905235048 | 24 | 8 | 9.7 | 17.7 | 0.00 | 0.00 | 0.00 | 85 | 1016.3 |
| 20260905234544 | 24 | 10 | 4.8 | 22.5 | 0.00 | 0.00 | 0.00 | 85 | 1015.9 |
| 20260905234039 | 24 | 346 | 9.7 | 19.3 | 0.00 | 0.00 | 0.00 | 85 | 1016.2 |
| 20260905233538 | 24 | 340 | 6.4 | 17.7 | 0.00 | 0.00 | 0.00 | 85 | 1015.9 |
| 20260905233038 | 24 | 22 | 11.3 | 17.7 | 0.00 | 0.00 | 0.00 | 84 | 1016.0 |
| 20260905232534 | 25 | 13 | 9.7 | 20.9 | 0.00 | 0.00 | 0.00 | 84 | 1015.8 |
| 20260905232029 | 25 | 349 | 6.4 | 25.7 | 0.00 | 0.00 | 0.00 | 83 | 1015.6 |
| 20260905231524 | 25 | 8 | 14.5 | 20.9 | 0.00 | 0.00 | 0.00 | 82 | 1015.8 |
| 20260905231021 | 25 | 13 | 8.0 | 17.7 | 0.00 | 0.00 | 0.00 | 82 | 1015.5 |
| 20260905230520 | 25 | 17 | 6.4 | 17.7 | 0.00 | 0.00 | 0.00 | 81 | 1015.5 |
| 20260905230018 | 26 | 42 | 17.7 | 20.9 | 0.00 | 0.00 | 0.00 | 80 | 1015.3 |
| 20260905225513 | 26 | 19 | 11.3 | 22.5 | 0.00 | 0.00 | 0.00 | 78 | 1015.3 |
| 20260905225009 | 26 | 32 | 16.1 | 16.1 | 0.00 | 0.00 | 0.00 | 77 | 1015.3 |
| 20260905224504 | 26 | 353 | 11.3 | 30.6 | 0.00 | 0.00 | 0.00 | 76 | 1015.4 |
| 20260905224003 | 26 | 357 | 4.8 | 20.9 | 0.00 | 0.00 | 0.00 | 77 | 1015.4 |
| 20260905223501 | 27 | 3 | 11.3 | 14.5 | 0.00 | 0.00 | 0.00 | 76 | 1015.5 |
| 20260905222956 | 26 | 16 | 9.7 | 22.5 | 0.00 | 0.00 | 0.00 | 76 | 1015.3 |
| 20260905222456 | 27 | 6 | 4.8 | 17.7 | 0.00 | 0.00 | 0.00 | 76 | 1015.4 |
| 20260905221951 | 27 | 47 | 6.4 | 19.3 | 0.00 | 0.00 | 0.00 | 76 | 1015.4 |
| 20260905221447 | 27 | 335 | 6.4 | 19.3 | 0.00 | 0.00 | 0.00 | 74 | 1015.5 |
| 20260905220943 | 27 | 324 | 4.8 | 24.1 | 0.00 | 0.00 | 0.00 | 75 | 1015.2 |
| 20260905220439 | 26 | 352 | 6.4 | 14.5 | 0.00 | 0.00 | 0.00 | 77 | 1015.5 |
| 20260905215938 | 27 | 359 | 4.8 | 17.7 | 0.00 | 0.00 | 0.00 | 76 | 1015.4 |
| 20260905215434 | 26 | 20 | 6.4 | 20.9 | 0.00 | 0.00 | 0.00 | 77 | 1015.6 |
| 20260905214930 | 26 | 358 | 17.7 | 24.1 | 0.00 | 0.00 | 0.00 | 77 | 1015.4 |
| 20260905214426 | 26 | 357 | 6.4 | 17.7 | 0.00 | 0.00 | 0.00 | 77 | 1015.4 |
| 20260905213926 | 26 | 16 | 11.3 | 19.3 | 0.00 | 0.00 | 0.00 | 77 | 1015.7 |
| 20260905213422 | 26 | 27 | 11.3 | 14.5 | 0.00 | 0.00 | 0.00 | 79 | 1015.6 |
| 20260905212917 | 26 | 334 | 6.4 | 17.7 | 0.00 | 0.00 | 0.00 | 79 | 1015.6 |
| 20260905212412 | 26 | 0 | 6.4 | 14.5 | 0.00 | 0.00 | 0.00 | 78 | 1015.4 |
| 20260905211911 | 26 | 321 | 6.4 | 14.5 | 0.00 | 0.00 | 0.00 | 79 | 1015.4 |
| 20260905211407 | 26 | 338 | 4.8 | 14.5 | 0.00 | 0.00 | 0.00 | 79 | 1015.3 |
| 20260905210903 | 26 | 343 | 6.4 | 19.3 | 0.00 | 0.00 | 0.00 | 78 | 1015.6 |
| 20260905210357 | 26 | 337 | 8.0 | 20.9 | 0.00 | 0.00 | 0.00 | 78 | 1015.4 |
| 20260905205856 | 27 | 333 | 11.3 | 22.5 | 0.00 | 0.00 | 0.00 | 78 | 1015.3 |
| 20260905205351 | 27 | 355 | 3.2 | 16.1 | 0.00 | 0.00 | 0.00 | 77 | 1015.4 |
| 20260905204850 | 27 | 333 | 8.0 | 16.1 | 0.00 | 0.00 | 0.00 | 77 | 1015.5 |
| 20260905204347 | 28 | 15 | 9.7 | 16.1 | 0.00 | 0.00 | 0.00 | 74 | 1015.5 |
| 20260905203845 | 27 | 301 | 4.8 | 20.9 | 0.00 | 0.00 | 0.00 | 76 | 1015.5 |
| 20260905203341 | 27 | 333 | 14.5 | 16.1 | 0.00 | 0.00 | 0.00 | 76 | 1015.5 |
| 20260905202837 | 27 | 346 | 4.8 | 20.9 | 0.00 | 0.00 | 0.00 | 77 | 1015.5 |
| 20260905202331 | 28 | 11 | 8.0 | 16.1 | 0.00 | 0.00 | 0.00 | 74 | 1015.4 |
| 20260905201827 | 27 | 352 | 9.7 | 19.3 | 0.00 | 0.00 | 0.00 | 76 | 1015.5 |
| 20260905201322 | 28 | 6 | 3.2 | 24.1 | 0.00 | 0.00 | 0.00 | 76 | 1015.6 |
| 20260905200816 | 28 | 321 | 4.8 | 12.9 | 0.00 | 0.00 | 0.00 | 74 | 1015.4 |
| 20260905200312 | 28 | 342 | 8.0 | 19.3 | 0.00 | 0.00 | 0.00 | 76 | 1015.3 |
| 20260905195810 | 27 | 25 | 12.9 | 17.7 | 0.00 | 0.00 | 0.00 | 77 | 1015.3 |
| 20260905195307 | 27 | 19 | 8.0 | 22.5 | 0.00 | 0.00 | 0.00 | 79 | 1015.4 |
| 20260905194801 | 27 | 31 | 16.1 | 24.1 | 0.00 | 0.00 | 0.00 | 79 | 1015.4 |
| 20260905194255 | 28 | 349 | 8.0 | 14.5 | 0.00 | 0.00 | 0.00 | 77 | 1015.6 |
| 20260905193754 | 27 | 331 | 9.7 | 20.9 | 0.00 | 0.00 | 0.00 | 76 | 1015.5 |
| 20260905193249 | 28 | 16 | 4.8 | 17.7 | 0.00 | 0.00 | 0.00 | 76 | 1015.5 |
| 20260905192744 | 28 | 8 | 8.0 | 14.5 | 0.00 | 0.00 | 0.00 | 76 | 1015.6 |
| 20260905192241 | 28 | 12 | 9.7 | 20.9 | 0.00 | 0.00 | 0.00 | 75 | 1015.6 |
| 20260905191740 | 29 | 332 | 8.0 | 16.1 | 0.00 | 0.00 | 0.00 | 72 | 1015.6 |
| 20260905191239 | 28 | 349 | 8.0 | 19.3 | 0.00 | 0.00 | 0.00 | 74 | 1015.6 |
| 20260905190737 | 29 | 351 | 6.4 | 16.1 | 0.00 | 0.00 | 0.00 | 75 | 1015.5 |
| 20260905190237 | 28 | 7 | 8.0 | 20.9 | 0.00 | 0.00 | 0.00 | 76 | 1015.5 |
| 20260905185736 | 27 | 350 | 8.0 | 17.7 | 0.00 | 0.00 | 0.00 | 77 | 1015.6 |
| 20260905185231 | 28 | 345 | 3.2 | 19.3 | 0.00 | 0.00 | 0.00 | 77 | 1015.4 |
| 20260905184725 | 28 | 5 | 6.4 | 17.7 | 0.00 | 0.00 | 0.00 | 75 | 1015.5 |
| 20260905184224 | 30 | 16 | 6.4 | 11.3 | 0.00 | 0.00 | 0.00 | 73 | 1015.7 |
| 20260905183723 | 29 | 20 | 17.7 | 17.7 | 0.00 | 0.00 | 0.00 | 73 | 1015.6 |
| 20260905183219 | 28 | 348 | 9.7 | 17.7 | 0.00 | 0.00 | 0.00 | 75 | 1015.7 |
| 20260905182713 | 28 | 3 | 12.9 | 17.7 | 0.00 | 0.00 | 0.00 | 74 | 1015.5 |
| 20260905182213 | 28 | 79 | 8.0 | 17.7 | 0.00 | 0.00 | 0.00 | 75 | 1015.7 |
| 20260905181708 | 28 | 329 | 4.8 | 17.7 | 0.00 | 0.00 | 0.00 | 75 | 1015.6 |
| 20260905181207 | 28 | 336 | 6.4 | 17.7 | 0.00 | 0.00 | 0.00 | 75 | 1015.5 |
| 20260905180702 | 29 | 104 | 6.4 | 14.5 | 0.00 | 0.00 | 0.00 | 73 | 1015.5 |
| 20260905180157 | 29 | 18 | 8.0 | 17.7 | 0.00 | 0.00 | 0.00 | 73 | 1015.5 |
| 20260905175656 | 29 | 12 | 6.4 | 16.1 | 0.00 | 0.00 | 0.00 | 73 | 1015.5 |
| 20260905175152 | 30 | 351 | 6.4 | 14.5 | 0.00 | 0.00 | 0.00 | 74 | 1015.4 |
| 20260905174647 | 30 | 356 | 9.7 | 16.1 | 0.00 | 0.00 | 0.00 | 72 | 1015.5 |
| 20260905174143 | 29 | 63 | 4.8 | 16.1 | 0.00 | 0.00 | 0.00 | 75 | 1015.5 |
| 20260905173638 | 29 | 2 | 8.0 | 19.3 | 0.00 | 0.00 | 0.00 | 74 | 1015.6 |
| 20260905173134 | 29 | 357 | 8.0 | 14.5 | 0.00 | 0.00 | 0.00 | 73 | 1015.6 |
| 20260905172633 | 30 | 355 | 6.4 | 12.9 | 0.00 | 0.00 | 0.00 | 72 | 1015.5 |
| 20260905172128 | 30 | 25 | 4.8 | 16.1 | 0.00 | 0.00 | 0.00 | 72 | 1015.6 |
| 20260905171624 | 31 | 351 | 9.7 | 14.5 | 0.00 | 0.00 | 0.00 | 69 | 1015.5 |
| 20260905171120 | 30 | 23 | 6.4 | 17.7 | 0.00 | 0.00 | 0.00 | 70 | 1015.4 |
| 20260905170616 | 31 | 8 | 4.8 | 14.5 | 0.00 | 0.00 | 0.00 | 69 | 1015.5 |
| 20260905170111 | 31 | 356 | 4.8 | 12.9 | 0.00 | 0.00 | 0.00 | 68 | 1015.6 |
| 20260905165606 | 30 | 358 | 6.4 | 14.5 | 0.00 | 0.00 | 0.00 | 70 | 1015.6 |
| 20260905165101 | 29 | 12 | 17.7 | 17.7 | 0.00 | 0.00 | 0.00 | 73 | 1015.5 |
| 20260905164555 | 30 | 359 | 9.7 | 17.7 | 0.00 | 0.00 | 0.00 | 73 | 1015.7 |
| 20260905164050 | 30 | 357 | 4.8 | 16.1 | 0.00 | 0.00 | 0.00 | 72 | 1015.8 |
| 20260905163546 | 30 | 133 | 4.8 | 12.9 | 0.00 | 0.00 | 0.00 | 72 | 1015.8 |
| 20260905163042 | 30 | 0 | 4.8 | 9.7 | 0.00 | 0.00 | 0.00 | 73 | 1015.7 |
| 20260905162538 | 28 | 312 | 6.4 | 17.7 | 0.00 | 0.00 | 0.00 | 74 | 1015.5 |
| 20260905162037 | 29 | 333 | 8.0 | 19.3 | 0.00 | 0.00 | 0.00 | 73 | 1015.9 |
| 20260905161532 | 29 | 18 | 12.9 | 14.5 | 0.00 | 0.00 | 0.00 | 73 | 1015.8 |
| 20260905161030 | 28 | 358 | 3.2 | 16.1 | 0.00 | 0.00 | 0.00 | 74 | 1015.9 |
| 20260905160528 | 28 | 87 | 11.3 | 17.7 | 0.00 | 0.00 | 0.00 | 75 | 1015.8 |
| 20260905160029 | 29 | 73 | 6.4 | 12.9 | 0.00 | 0.00 | 0.00 | 74 | 1015.6 |
| 20260905155528 | 28 | 87 | 3.2 | 17.7 | 0.00 | 0.00 | 0.00 | 75 | 1015.4 |
| 20260905155027 | 29 | 82 | 4.8 | 9.7 | 0.00 | 0.00 | 0.00 | 75 | 1015.4 |
| 20260905154522 | 29 | 14 | 4.8 | 11.3 | 0.00 | 0.00 | 0.00 | 74 | 1015.6 |
| 20260905154018 | 28 | 342 | 8.0 | 16.1 | 0.00 | 0.00 | 0.00 | 76 | 1015.6 |
| 20260905153514 | 28 | 52 | 3.2 | 11.3 | 0.00 | 0.00 | 0.00 | 76 | 1015.6 |
| 20260905153014 | 28 | 354 | 6.4 | 16.1 | 0.00 | 0.00 | 0.00 | 77 | 1015.1 |
| 20260905152514 | 29 | 319 | 3.2 | 8.0 | 0.00 | 0.00 | 0.00 | 77 | 1015.4 |
| 20260905152009 | 28 | 70 | 4.8 | 16.1 | 0.00 | 0.00 | 0.00 | 80 | 1015.4 |
| 20260905151504 | 28 | 38 | 4.8 | 14.5 | 0.00 | 0.00 | 0.00 | 80 | 1015.5 |
| 20260905150959 | 28 | 39 | 6.4 | 11.3 | 0.00 | 0.00 | 0.00 | 82 | 1015.5 |
| 20260905150454 | 27 | 4 | 4.8 | 24.1 | 0.00 | 0.00 | 0.00 | 83 | 1015.2 |
| 20260905145950 | 27 | 335 | 6.4 | 12.9 | 0.00 | 0.00 | 0.00 | 83 | 1015.1 |
| 20260905145445 | 27 | 12 | 8.0 | 19.3 | 0.00 | 0.00 | 0.00 | 85 | 1015.3 |
| 20260905144944 | 27 | 345 | 9.7 | 16.1 | 0.00 | 0.00 | 0.00 | 85 | 1015.4 |
| 20260905144440 | 27 | 5 | 8.0 | 19.3 | 0.00 | 0.00 | 0.00 | 85 | 1015.2 |
| 20260905143939 | 27 | 106 | 4.8 | 19.3 | 0.00 | 0.00 | 0.00 | 85 | 1015.3 |
| 20260905143432 | 27 | 30 | 9.7 | 14.5 | 0.00 | 0.00 | 0.00 | 85 | 1015.2 |
| 20260905142927 | 27 | 3 | 4.8 | 17.7 | 0.00 | 0.00 | 0.00 | 85 | 1015.3 |
| 20260905142426 | 26 | 74 | 3.2 | 12.9 | 0.00 | 0.00 | 0.00 | 87 | 1015.2 |
| 20260905141922 | 26 | 299 | 4.8 | 17.7 | 0.00 | 0.00 | 0.00 | 88 | 1014.9 |
| 20260905141416 | 26 | 13 | 6.4 | 11.3 | 0.00 | 0.00 | 0.00 | 88 | 1014.9 |
| 20260905140913 | 26 | 341 | 3.2 | 12.9 | 0.00 | 0.00 | 0.00 | 90 | 1014.9 |
| 20260905140408 | 26 | 327 | 4.8 | 11.3 | 0.00 | 0.00 | 0.00 | 89 | 1014.7 |
| 20260905135906 | 26 | 13 | 8.0 | 12.9 | 0.00 | 0.00 | 0.00 | 88 | 1014.8 |
| 20260905135402 | 26 | 10 | 4.8 | 12.9 | 0.00 | 0.00 | 0.00 | 90 | 1014.8 |
| 20260905134857 | 26 | 349 | 4.8 | 8.0 | 0.00 | 0.00 | 0.00 | 88 | 1014.8 |
| 20260905134356 | 26 | 19 | 4.8 | 11.3 | 0.00 | 0.00 | 0.00 | 90 | 1015.0 |
| 20260905133850 | 26 | 287 | 3.2 | 6.4 | 0.00 | 0.00 | 0.00 | 91 | 1015.0 |
| 20260905133346 | 25 | 11 | 6.4 | 9.7 | 0.00 | 0.00 | 0.00 | 92 | 1015.2 |
| 20260905132845 | 25 | 333 | 3.2 | 9.7 | 0.00 | 0.00 | 0.00 | 92 | 1015.4 |
| 20260905132341 | 25 | 348 | 4.8 | 9.7 | 0.00 | 0.00 | 0.00 | 92 | 1015.1 |
| 20260905131840 | 25 | 18 | 4.8 | 11.3 | 0.00 | 0.00 | 0.00 | 92 | 1015.0 |
| 20260905131336 | 26 | 86 | 4.8 | 9.7 | 0.00 | 0.00 | 0.00 | 91 | 1014.7 |
| 20260905130831 | 26 | 181 | 3.2 | 8.0 | 0.00 | 0.00 | 0.00 | 90 | 1014.8 |
| 20260905130330 | 26 | 60 | 0.0 | 9.7 | 0.00 | 0.00 | 0.00 | 91 | 1014.7 |
| 20260905125825 | 26 | 9 | 4.8 | 12.9 | 0.00 | 0.00 | 0.00 | 91 | 1014.7 |
| 20260905125320 | 26 | 63 | 4.8 | 9.7 | 0.00 | 0.00 | 0.00 | 91 | 1014.5 |
| 20260905124816 | 25 | 5 | 3.2 | 11.3 | 0.00 | 0.00 | 0.00 | 91 | 1014.2 |
| 20260905124313 | 25 | 349 | 4.8 | 12.9 | 0.00 | 0.00 | 0.00 | 92 | 1014.2 |
| 20260905123807 | 25 | 44 | 8.0 | 16.1 | 0.00 | 0.00 | 0.00 | 93 | 1014.4 |
| 20260905123304 | 25 | 23 | 11.3 | 11.3 | 0.00 | 0.00 | 0.00 | 93 | 1014.1 |
| 20260905122804 | 25 | 342 | 11.3 | 14.5 | 0.00 | 0.00 | 0.00 | 94 | 1014.1 |
| 20260905122306 | 25 | 29 | 4.8 | 11.3 | 0.00 | 0.00 | 0.00 | 95 | 1014.2 |
| 20260905121759 | 25 | 10 | 3.2 | 6.4 | 0.00 | 0.00 | 0.00 | 96 | 1014.1 |
| 20260905121255 | 25 | 12 | 6.4 | 9.7 | 0.00 | 0.00 | 0.00 | 97 | 1014.0 |
| 20260905120753 | 25 | 4 | 4.8 | 8.0 | 0.00 | 0.00 | 0.00 | 98 | 1014.1 |
| 20260905120248 | 25 | 297 | 0.0 | 3.2 | 0.00 | 0.00 | 0.00 | 98 | 1013.9 |
| 20260905115743 | 24 | 328 | 0.0 | 3.2 | 0.00 | 0.00 | 0.00 | 98 | 1014.0 |
| 20260905115243 | 24 | 339 | 0.0 | 1.6 | 0.00 | 0.00 | 0.00 | 98 | 1013.9 |
| 20260905114742 | 24 | 154 | 0.0 | 0.0 | 0.00 | 0.00 | 0.00 | 98 | 1013.7 |
| 20260905114241 | 24 | 124 | 0.0 | 1.6 | 0.00 | 0.00 | 0.00 | 98 | 1013.6 |
| 20260905113740 | 24 | 89 | 0.0 | 0.0 | 0.00 | 0.00 | 0.00 | 98 | 1013.7 |